Weather History for KHMN - March, 2013

Change the Weather History Date:

Sunday, March 17, 2013

  Actual Average Record
Temperature  
Mean Temperature 59 °F -  
Max Temperature 76 °F 66 °F 83 °F (2011)
Min Temperature 42 °F 36 °F 32 °F (2005)
Degree Days  
Heating Degree Days 6    
Growing Degree Days 9 (Base 50)    
Moisture  
Dew Point 17 °F    
Average Humidity 17    
Maximum Humidity 44    
Minimum Humidity 10    
Precipitation  
Precipitation 0.01 in - - ()
Sea Level Pressure  
Sea Level Pressure 29.71 in    
Wind  
Wind Speed 10 mph (WNW)    
Max Wind Speed 29 mph    
Max Gust Speed 62 mph    
Visibility 9 miles    
Events      
Averages and records for this station are not official NWS values.
T = Trace of Precipitation, MM = Missing Value Source: NWS Daily Summary

Daily Weather History Graph

Daily Weather History Graph

Search for Another Location

Airport or City:

Trip Planner

Search our weather history database for the weather conditions in past years. The results will help you decide how hot, cold, wet, or windy it might be!

Date:

Astronomy

Mar. 17, 2013 Rise Set
Actual Time 7:11 AM MDT 7:14 PM MDT
Civil Twilight 6:47 AM MDT 7:38 PM MDT
Nautical Twilight 6:18 AM MDT 8:07 PM MDT
Astronomical Twilight 5:49 AM MDT 8:36 PM MDT
Moon 10:44 AM MDT (3/17) 12:07 AM MDT (3/17)
Length of Visible Light 12h 51m
Length of Day
12h 02m
Waxing Crescent, 32% of the Moon is Illuminated
Mar 17
Waxing Crescent
Mar 19
First Quarter
Mar 27
Full
Apr 2
Last Quarter
Apr 10
New

Hourly Weather History & Observations

Time (MDT) Temp. Windchill Dew Point Humidity Pressure Visibility Wind Dir Wind Speed Gust Speed Precip Events Conditions
12:58 AM 59.2 °F - 10.2 °F 14% 29.65 in 10.0 mi WNW 5.8 mph - N/A   Clear
1:58 AM 53.6 °F - 8.6 °F 16% 29.67 in 10.0 mi NNE 3.5 mph - N/A   Clear
2:58 AM 52.7 °F - 9.5 °F 18% 29.68 in 10.0 mi NW 8.1 mph - N/A   Clear
3:58 AM 55.6 °F - 20.5 °F 26% 29.68 in 10.0 mi North 10.4 mph - N/A   Clear
4:58 AM 49.5 °F - 25.3 °F 39% 29.68 in 10.0 mi NE 8.1 mph - N/A   Clear
5:58 AM 44.6 °F 42.2 °F 22.3 °F 41% 29.71 in 10.0 mi North 4.6 mph - N/A   Clear
6:58 AM 42.4 °F 38.8 °F 20.3 °F 41% 29.73 in 10.0 mi NW 5.8 mph - N/A   Clear
7:58 AM 43.5 °F 39.4 °F 22.6 °F 44% 29.75 in 10.0 mi NW 6.9 mph - N/A   Clear
8:58 AM 49.5 °F - 16.9 °F 27% 29.76 in 10.0 mi Calm Calm - N/A   Clear
9:58 AM 59.0 °F - 26.4 °F 29% 29.74 in 10.0 mi SE 3.5 mph - N/A   Clear
10:58 AM 65.1 °F - 27.5 °F 24% 29.74 in 10.0 mi South 5.8 mph - N/A   Clear
11:58 AM 69.4 °F - 27.1 °F 21% 29.70 in 10.0 mi South 8.1 mph - N/A   Clear
12:58 PM 72.3 °F - 26.4 °F 18% 29.66 in 10.0 mi East 4.6 mph - N/A   Clear
1:58 PM 75.4 °F - 21.4 °F 13% 29.63 in 10.0 mi West 12.7 mph 26.5 mph N/A   Clear
2:00 PM 75.2 °F - 21.2 °F 13% 29.79 in 10.0 mi SW 15.0 mph 19.6 mph N/A   Clear
2:34 PM 75.2 °F - 21.2 °F 13% 29.76 in 10.0 mi SSW 13.8 mph - N/A   Clear
2:58 PM 75.2 °F - 19.6 °F 12% 29.58 in 10.0 mi SW 16.1 mph 25.3 mph N/A   Clear
3:03 PM 75.2 °F - 19.4 °F 12% 29.73 in 10.0 mi West 15.0 mph 23.0 mph N/A   Clear
3:16 PM 75.2 °F - 15.8 °F 11% 29.73 in 6.0 mi NW 16.1 mph 36.8 mph N/A   Haze
3:17 PM 75.2 °F - 17.6 °F 11% 29.73 in 7.0 mi NNW 15.0 mph 36.8 mph N/A   Clear
3:58 PM 76.1 °F - 16.2 °F 10% 29.55 in 10.0 mi NW 11.5 mph - N/A   Clear
4:42 PM 75.2 °F - 15.8 °F 11% 29.74 in 5.0 mi NW 26.5 mph 62.1 mph N/A   Haze
4:47 PM 73.4 °F - 17.6 °F 12% 29.73 in 2.5 mi WNW 15.0 mph 62.1 mph N/A   Haze
4:52 PM 73.4 °F - 15.8 °F 11% 29.74 in 4.0 mi NW 24.2 mph 62.1 mph N/A   Haze
4:58 PM 74.1 °F - 16.7 °F 11% 29.60 in 9.0 mi NW 28.8 mph 33.4 mph 0.01 in   Clear
5:58 PM 74.5 °F - 17.1 °F 11% 29.60 in 10.0 mi WNW 12.7 mph - N/A   Clear
6:58 PM 73.4 °F - 13.6 °F 10% 29.62 in 6.0 mi West 11.5 mph - N/A   Haze
7:43 PM 68.0 °F - 12.2 °F 12% 29.77 in 8.0 mi West 10.4 mph - N/A   Clear
7:58 PM 66.0 °F - 10.4 °F 11% 29.65 in 9.0 mi WSW 10.4 mph - N/A   Clear
8:34 PM 62.6 °F - 12.2 °F 14% 29.79 in 10.0 mi West 8.1 mph - N/A   Clear
8:58 PM 64.6 °F - 11.1 °F 12% 29.68 in 10.0 mi West 10.4 mph - N/A   Clear
9:24 PM 62.6 °F - 12.2 °F 14% 29.81 in 9.0 mi West 12.7 mph - N/A   Clear
9:49 PM 62.6 °F - 12.2 °F 14% 29.83 in 10.0 mi West 12.7 mph - N/A   Clear
9:58 PM 62.8 °F - 11.5 °F 13% 29.69 in 10.0 mi West 15.0 mph - N/A   Clear
10:03 PM 62.6 °F - 8.6 °F 12% 29.83 in 7.0 mi West 16.1 mph - N/A   Clear
10:58 PM 60.8 °F - 8.1 °F 12% 29.70 in 7.0 mi West 12.7 mph - N/A   Clear
11:13 PM 60.8 °F - 8.6 °F 13% 29.86 in 10.0 mi West 10.4 mph - N/A   Clear
11:58 PM 59.4 °F - 8.6 °F 13% 29.72 in 10.0 mi West 9.2 mph - N/A   Clear